Weather History for Solenzara, France

Change the Weather History Date:

Saturday, October 27, 2012

  Actual Average (LFKJ) Record (LFKJ)
Temperature  
Mean Temperature 64 °F -  
Max Temperature 69 °F 69 °F 80 °F (2006)
Min Temperature 59 °F 52 °F 41 °F (2010)
Degree Days  
Heating Degree Days 1    
Growing Degree Days 14 (Base 50)    
Moisture  
Dew Point 53 °F    
Average Humidity 68    
Maximum Humidity 94    
Minimum Humidity 42    
Precipitation  
Precipitation 0.00 in - - ()
Sea Level Pressure  
Sea Level Pressure 29.28 in    
Wind  
Wind Speed 6 mph ()    
Max Wind Speed 17 mph    
Max Gust Speed 30 mph    
Visibility 6.2 miles    
Events Rain , Thunderstorm    
Averages and records for this station are not official NWS values.
T = Trace of Precipitation, MM = Missing Value Source: Averaged Metar Reports

Daily Weather History Graph

Daily Weather History Graph

Search for Another Location

Airport:

Trip Planner

Search our weather history database for the weather conditions in past years. The results will help you decide how hot, cold, wet, or windy it might be!

Date:

Astronomy

Oct. 27, 2012 Rise Set
Actual Time 7:49 AM CEST 6:22 PM CEST
Civil Twilight 7:20 AM CEST 6:51 PM CEST
Nautical Twilight 6:47 AM CEST 7:24 PM CEST
Astronomical Twilight 6:15 AM CEST 7:56 PM CEST
Moon 5:01 PM CEST (10/27) 5:26 AM CEST (10/27)
Length of Visible Light 11h 31m
Length of Day
10h 33m
Waxing Gibbous, 95% of the Moon is Illuminated
Oct 27
Waxing Gibbous
Oct 29
Full
Nov 7
Last Quarter
Nov 13
New
Nov 20
First Quarter

Hourly Weather History & Observations

Time (CEST) Temp. Dew Point Humidity Pressure Visibility Wind Dir Wind Speed Gust Speed Precip Events Conditions
12:00 AM 60.8 °F 59.0 °F 94% 29.44 in 6.2 mi North 8.1 mph - N/A Thunderstorm Overcast
12:30 AM 62.6 °F 59.0 °F 88% 29.44 in 6.2 mi NNW 3.5 mph - N/A Rain Light Rain
1:00 AM 60.8 °F 57.2 °F 88% 29.42 in 6.2 mi WSW 4.6 mph - N/A Rain Light Rain
1:30 AM 60.8 °F 57.2 °F 88% 29.42 in 6.2 mi West 3.5 mph - N/A   Mostly Cloudy
2:00 AM 60.8 °F 57.2 °F 88% 29.39 in 6.2 mi SSW 3.5 mph - N/A   Mostly Cloudy
2:30 AM 60.8 °F 59.0 °F 94% 29.39 in 6.2 mi WSW 4.6 mph - N/A   Mostly Cloudy
3:00 AM 60.8 °F 57.2 °F 88% 29.36 in 6.2 mi WSW 6.9 mph - N/A   Scattered Clouds
3:30 AM 60.8 °F 57.2 °F 88% 29.33 in 6.2 mi WNW 4.6 mph - N/A   Mostly Cloudy
4:00 AM 64.4 °F 55.4 °F 73% 29.30 in 6.2 mi WSW 6.9 mph - N/A   Mostly Cloudy
4:30 AM 62.6 °F 55.4 °F 77% 29.30 in 6.2 mi West 5.8 mph - N/A   Mostly Cloudy
5:00 AM 62.6 °F 57.2 °F 82% 29.30 in 6.2 mi West 6.9 mph - N/A   Mostly Cloudy
5:30 AM 62.6 °F 55.4 °F 77% 29.27 in 6.2 mi WSW 6.9 mph - N/A   Mostly Cloudy
6:00 AM 62.6 °F 55.4 °F 77% 29.27 in 6.2 mi SW 4.6 mph - N/A   Mostly Cloudy
6:30 AM 64.4 °F 53.6 °F 68% 29.30 in 6.2 mi West 3.5 mph - N/A   Mostly Cloudy
7:00 AM 64.4 °F 53.6 °F 68% 29.30 in 6.2 mi SW 4.6 mph - N/A   Mostly Cloudy
7:30 AM 62.6 °F 55.4 °F 77% 29.30 in 4.3 mi West 4.6 mph - N/A Rain Rain
8:00 AM 59.0 °F 55.4 °F 88% 29.27 in 6.2 mi West 6.9 mph - N/A Rain Light Rain
8:30 AM 59.0 °F 57.2 °F 94% 29.27 in 6.2 mi SW 4.6 mph - N/A Rain Light Rain
9:00 AM 60.8 °F 55.4 °F 82% 29.27 in 6.2 mi West 5.8 mph - N/A   Partly Cloudy
9:30 AM 62.6 °F 57.2 °F 82% 29.27 in 6.2 mi Variable 3.5 mph - N/A Rain Light Rain
10:00 AM 64.4 °F 57.2 °F 77% 29.27 in 6.2 mi Variable 2.3 mph - N/A   Mostly Cloudy
10:30 AM 64.4 °F 57.2 °F 77% 29.27 in 6.2 mi Variable 2.3 mph - N/A   Mostly Cloudy
11:00 AM 64.4 °F 57.2 °F 77% 29.27 in 6.2 mi Variable 3.5 mph - N/A Rain Light Rain
11:30 AM 66.2 °F 59.0 °F 78% 29.27 in 6.2 mi ESE 4.6 mph - N/A   Mostly Cloudy
12:00 PM 68.0 °F 59.0 °F 73% 29.27 in 6.2 mi Variable 3.5 mph - N/A   Overcast
12:30 PM 69.8 °F 55.4 °F 60% 29.24 in 6.2 mi WSW 6.9 mph - N/A   Mostly Cloudy
1:00 PM 68.0 °F 57.2 °F 68% 29.24 in 6.2 mi Variable 4.6 mph - N/A   Mostly Cloudy
1:30 PM 69.8 °F 53.6 °F 56% 29.21 in 6.2 mi WSW 9.2 mph - N/A   Mostly Cloudy
2:00 PM 69.8 °F 51.8 °F 53% 29.21 in 6.2 mi WSW 11.5 mph 25.3 mph N/A   Mostly Cloudy
2:30 PM 69.8 °F 51.8 °F 53% 29.21 in 6.2 mi West 9.2 mph 26.5 mph N/A   Overcast
3:00 PM 69.8 °F 51.8 °F 53% 29.21 in 6.2 mi WSW 12.7 mph - N/A   Partly Cloudy
3:30 PM 69.8 °F 50.0 °F 49% 29.21 in 6.2 mi WSW 9.2 mph - N/A   Scattered Clouds
4:00 PM 69.8 °F 51.8 °F 53% 29.21 in 6.2 mi West 10.4 mph - N/A   Mostly Cloudy
4:30 PM 69.8 °F 51.8 °F 53% 29.18 in 6.2 mi West 12.7 mph 24.2 mph N/A   Partly Cloudy
5:00 PM 68.0 °F 51.8 °F 56% 29.18 in 6.2 mi West 8.1 mph - N/A   Partly Cloudy
5:30 PM 68.0 °F 51.8 °F 56% 29.18 in 6.2 mi West 10.4 mph - N/A   Unknown
6:00 PM 68.0 °F 50.0 °F 52% 29.21 in 6.2 mi WSW 12.7 mph 24.2 mph N/A   Partly Cloudy
6:30 PM 66.2 °F 50.0 °F 56% 29.21 in 6.2 mi West 11.5 mph - N/A   Mostly Cloudy
7:00 PM 66.2 °F 46.4 °F 49% 29.24 in 6.2 mi West 10.4 mph - N/A   Partly Cloudy
7:30 PM 64.4 °F 46.4 °F 52% 29.24 in 6.2 mi West 9.2 mph - N/A   Unknown
8:00 PM 64.4 °F 44.6 °F 49% 29.24 in 6.2 mi West 10.4 mph - N/A   Unknown
8:30 PM 64.4 °F 44.6 °F 49% 29.24 in 6.2 mi West 10.4 mph 26.5 mph N/A   Unknown
9:00 PM 62.6 °F 44.6 °F 52% 29.24 in 6.2 mi Variable 5.8 mph - N/A   Partly Cloudy
9:30 PM 62.6 °F 44.6 °F 52% 29.27 in 6.2 mi Variable 2.3 mph - N/A   Mostly Cloudy
10:00 PM 60.8 °F 44.6 °F 55% 29.27 in 6.2 mi Variable 3.5 mph - N/A   Scattered Clouds
10:30 PM 60.8 °F 41.0 °F 48% 29.27 in 6.2 mi WNW 10.4 mph - N/A   Unknown
11:00 PM 60.8 °F 37.4 °F 42% 29.27 in 6.2 mi NW 17.3 mph 29.9 mph N/A   Unknown
11:30 PM 59.0 °F 37.4 °F 45% 29.27 in 6.2 mi WNW 12.7 mph - N/A   Unknown